| time (UTC) | temp C | wind direction | speed KPH | gust KPH | rain 1hr cm | rain 24hr cm | rain mn cm | humidity % | barometer mb |
| 20260904032356 | 17 | 248 | 3.2 | 6.4 | 0.00 | 0.00 | 0.00 | 83 | 1014.0 |
| 20260904032123 | 17 | 257 | 3.2 | 6.4 | 0.00 | 0.00 | 0.00 | 83 | 1014.0 |
| 20260904031626 | 17 | 240 | 3.2 | 6.4 | 0.00 | 0.00 | 0.00 | 82 | 1013.9 |
| 20260904030854 | 17 | 245 | 3.2 | 6.4 | 0.00 | 0.00 | 0.00 | 82 | 1013.9 |
| 20260904030627 | 17 | 250 | 3.2 | 8.0 | 0.00 | 0.00 | 0.00 | 81 | 1013.8 |
| 20260904025854 | 17 | 247 | 3.2 | 8.0 | 0.00 | 0.00 | 0.00 | 81 | 1013.9 |
| 20260904025619 | 17 | 244 | 3.2 | 8.0 | 0.00 | 0.00 | 0.00 | 81 | 1013.7 |
| 20260904024852 | 17 | 252 | 3.2 | 6.4 | 0.00 | 0.00 | 0.00 | 81 | 1013.9 |
| 20260904024352 | 17 | 237 | 3.2 | 6.4 | 0.00 | 0.00 | 0.00 | 81 | 1013.8 |
| 20260904023851 | 17 | 245 | 3.2 | 8.0 | 0.00 | 0.00 | 0.00 | 81 | 1014.0 |
| 20260904023349 | 17 | 240 | 4.8 | 8.0 | 0.00 | 0.00 | 0.00 | 81 | 1014.0 |
| 20260904022848 | 17 | 226 | 4.8 | 6.4 | 0.00 | 0.00 | 0.00 | 81 | 1014.0 |
| 20260904022349 | 17 | 254 | 3.2 | 6.4 | 0.00 | 0.00 | 0.00 | 81 | 1013.9 |
| 20260904021848 | 17 | 255 | 3.2 | 6.4 | 0.00 | 0.00 | 0.00 | 81 | 1013.9 |
| 20260904021348 | 17 | 250 | 3.2 | 6.4 | 0.00 | 0.00 | 0.00 | 81 | 1014.0 |
| 20260904020848 | 17 | 240 | 3.2 | 4.8 | 0.00 | 0.00 | 0.00 | 81 | 1013.8 |
| 20260904020347 | 17 | 241 | 3.2 | 6.4 | 0.00 | 0.00 | 0.00 | 81 | 1013.8 |
| 20260904015849 | 17 | 248 | 3.2 | 6.4 | 0.00 | 0.00 | 0.00 | 81 | 1013.6 |
| 20260904015345 | 17 | 250 | 3.2 | 6.4 | 0.00 | 0.00 | 0.00 | 81 | 1013.5 |
| 20260904014844 | 17 | 252 | 3.2 | 4.8 | 0.00 | 0.00 | 0.00 | 81 | 1013.5 |
| 20260904014344 | 17 | 259 | 3.2 | 4.8 | 0.00 | 0.00 | 0.00 | 82 | 1013.4 |
| 20260904013844 | 17 | 254 | 3.2 | 6.4 | 0.00 | 0.00 | 0.00 | 82 | 1013.4 |
| 20260904013343 | 17 | 252 | 3.2 | 6.4 | 0.00 | 0.00 | 0.00 | 83 | 1013.5 |
| 20260904013111 | 17 | 252 | 3.2 | 4.8 | 0.00 | 0.00 | 0.00 | 83 | 1013.5 |
| 20260904012344 | 17 | 250 | 3.2 | 4.8 | 0.00 | 0.00 | 0.00 | 83 | 1013.5 |
| 20260904011843 | 18 | 252 | 3.2 | 4.8 | 0.00 | 0.00 | 0.00 | 83 | 1013.4 |
| 20260904011344 | 18 | 248 | 1.6 | 4.8 | 0.00 | 0.00 | 0.00 | 83 | 1013.5 |
| 20260904010842 | 18 | 244 | 1.6 | 3.2 | 0.00 | 0.00 | 0.00 | 83 | 1013.4 |
| 20260904010343 | 18 | 233 | 1.6 | 3.2 | 0.00 | 0.00 | 0.00 | 82 | 1013.4 |
| 20260904005843 | 18 | 236 | 0.0 | 3.2 | 0.00 | 0.00 | 0.00 | 81 | 1013.4 |
| 20260904005343 | 18 | 238 | 1.6 | 3.2 | 0.00 | 0.00 | 0.00 | 81 | 1013.4 |
| 20260904004842 | 18 | 247 | 0.0 | 3.2 | 0.00 | 0.00 | 0.00 | 80 | 1013.3 |
| 20260904004342 | 18 | 250 | 1.6 | 3.2 | 0.00 | 0.00 | 0.00 | 80 | 1013.2 |
| 20260904003842 | 18 | 251 | 1.6 | 3.2 | 0.00 | 0.00 | 0.00 | 80 | 1013.1 |
| 20260904003343 | 19 | 250 | 1.6 | 3.2 | 0.00 | 0.00 | 0.00 | 79 | 1013.1 |
| 20260904002842 | 19 | 248 | 0.0 | 0.0 | 0.00 | 0.00 | 0.00 | 78 | 1013.1 |
| 20260904002341 | 19 | 254 | 0.0 | 0.0 | 0.00 | 0.00 | 0.00 | 77 | 1013.0 |
| 20260904001841 | 20 | 257 | 0.0 | 3.2 | 0.00 | 0.00 | 0.00 | 77 | 1013.0 |
| 20260904001342 | 20 | 257 | 1.6 | 3.2 | 0.00 | 0.00 | 0.00 | 76 | 1013.1 |
| 20260904000841 | 20 | 248 | 1.6 | 3.2 | 0.00 | 0.00 | 0.00 | 76 | 1013.1 |
| 20260903235842 | 20 | 76 | 0.0 | 1.6 | 0.00 | 0.00 | 0.00 | 75 | 1013.0 |
| 20260903235621 | 20 | 71 | 0.0 | 0.0 | 0.00 | 0.00 | 0.00 | 74 | 1012.9 |
| 20260903234844 | 20 | 69 | 0.0 | 0.0 | 0.00 | 0.00 | 0.00 | 73 | 1012.8 |
| 20260903234341 | 20 | 72 | 0.0 | 0.0 | 0.00 | 0.00 | 0.00 | 72 | 1012.7 |
| 20260903234105 | 21 | 69 | 0.0 | 0.0 | 0.00 | 0.00 | 0.00 | 72 | 1012.8 |
| 20260903233340 | 21 | 71 | 0.0 | 0.0 | 0.00 | 0.00 | 0.00 | 72 | 1012.7 |
| 20260903232841 | 21 | 71 | 0.0 | 1.6 | 0.00 | 0.00 | 0.00 | 72 | 1012.5 |
| 20260903232340 | 21 | 71 | 0.0 | 3.2 | 0.00 | 0.00 | 0.00 | 72 | 1012.4 |
| 20260903231340 | 21 | 80 | 0.0 | 6.4 | 0.00 | 0.00 | 0.00 | 73 | 1012.3 |
| 20260903230841 | 21 | 47 | 1.6 | 6.4 | 0.00 | 0.00 | 0.00 | 73 | 1012.1 |
| 20260903230340 | 21 | 66 | 0.0 | 3.2 | 0.00 | 0.00 | 0.00 | 74 | 1012.1 |
| 20260903225840 | 21 | 73 | 0.0 | 3.2 | 0.00 | 0.00 | 0.00 | 74 | 1012.1 |
| 20260903225339 | 21 | 75 | 0.0 | 3.2 | 0.00 | 0.00 | 0.00 | 73 | 1012.1 |
| 20260903224338 | 21 | 61 | 3.2 | 4.8 | 0.00 | 0.00 | 0.00 | 74 | 1011.9 |
| 20260903224108 | 21 | 63 | 1.6 | 6.4 | 0.00 | 0.00 | 0.00 | 75 | 1011.8 |
| 20260903223338 | 21 | 76 | 1.6 | 6.4 | 0.00 | 0.00 | 0.00 | 73 | 1011.9 |
| 20260903222841 | 21 | 89 | 1.6 | 4.8 | 0.00 | 0.00 | 0.00 | 73 | 1011.8 |
| 20260903222339 | 21 | 86 | 1.6 | 4.8 | 0.00 | 0.00 | 0.00 | 74 | 1011.7 |
| 20260903221838 | 21 | 68 | 3.2 | 6.4 | 0.00 | 0.00 | 0.00 | 74 | 1011.9 |
| 20260903221338 | 21 | 45 | 3.2 | 6.4 | 0.00 | 0.00 | 0.00 | 74 | 1011.8 |
| 20260903220837 | 21 | 61 | 3.2 | 8.0 | 0.00 | 0.00 | 0.00 | 76 | 1011.8 |
| 20260903215837 | 21 | 69 | 4.8 | 9.7 | 0.00 | 0.00 | 0.00 | 78 | 1011.6 |
| 20260903215338 | 21 | 69 | 6.4 | 9.7 | 0.00 | 0.00 | 0.00 | 78 | 1011.6 |
| 20260903214838 | 21 | 79 | 4.8 | 8.0 | 0.00 | 0.00 | 0.00 | 76 | 1011.7 |
| 20260903214339 | 22 | 72 | 4.8 | 8.0 | 0.00 | 0.00 | 0.00 | 73 | 1011.8 |
| 20260903214109 | 21 | 75 | 3.2 | 6.4 | 0.00 | 0.00 | 0.00 | 75 | 1011.9 |
| 20260903213336 | 22 | 76 | 3.2 | 6.4 | 0.00 | 0.00 | 0.00 | 75 | 1011.9 |
| 20260903213112 | 22 | 73 | 3.2 | 8.0 | 0.00 | 0.00 | 0.00 | 69 | 1011.9 |
| 20260903212338 | 22 | 76 | 4.8 | 8.0 | 0.00 | 0.00 | 0.00 | 67 | 1012.0 |
| 20260903211835 | 22 | 61 | 3.2 | 6.4 | 0.00 | 0.00 | 0.00 | 65 | 1012.3 |
| 20260903211335 | 22 | 66 | 4.8 | 6.4 | 0.00 | 0.00 | 0.00 | 64 | 1012.4 |
| 20260903210837 | 22 | 89 | 3.2 | 6.4 | 0.00 | 0.00 | 0.00 | 67 | 1012.4 |
| 20260903210332 | 23 | 86 | 3.2 | 6.4 | 0.00 | 0.00 | 0.00 | 66 | 1012.5 |
| 20260903205832 | 22 | 69 | 1.6 | 4.8 | 0.00 | 0.00 | 0.00 | 64 | 1012.5 |
| 20260903205334 | 22 | 59 | 1.6 | 6.4 | 0.00 | 0.00 | 0.00 | 69 | 1012.5 |
| 20260903204834 | 22 | 41 | 3.2 | 6.4 | 0.00 | 0.00 | 0.00 | 71 | 1012.5 |
| 20260903204332 | 22 | 99 | 3.2 | 6.4 | 0.00 | 0.00 | 0.00 | 68 | 1012.7 |
| 20260903203833 | 22 | 73 | 3.2 | 6.4 | 0.00 | 0.00 | 0.00 | 69 | 1012.7 |
| 20260903203333 | 22 | 72 | 1.6 | 4.8 | 0.00 | 0.00 | 0.00 | 69 | 1012.9 |
| 20260903202833 | 22 | 69 | 3.2 | 4.8 | 0.00 | 0.00 | 0.00 | 72 | 1012.9 |
| 20260903202332 | 22 | 73 | 3.2 | 6.4 | 0.00 | 0.00 | 0.00 | 75 | 1012.9 |
| 20260903201832 | 22 | 71 | 1.6 | 6.4 | 0.00 | 0.00 | 0.00 | 76 | 1013.0 |
| 20260903201334 | 22 | 55 | 1.6 | 6.4 | 0.00 | 0.00 | 0.00 | 76 | 1013.1 |
| 20260903200831 | 22 | 51 | 1.6 | 9.7 | 0.00 | 0.00 | 0.00 | 71 | 1013.2 |
| 20260903200332 | 22 | 79 | 4.8 | 9.7 | 0.00 | 0.00 | 0.00 | 72 | 1013.3 |
| 20260903195831 | 23 | 56 | 4.8 | 8.0 | 0.00 | 0.00 | 0.00 | 70 | 1013.4 |
| 20260903195329 | 22 | 85 | 3.2 | 4.8 | 0.00 | 0.00 | 0.00 | 73 | 1013.5 |
| 20260903194829 | 22 | 72 | 3.2 | 6.4 | 0.00 | 0.00 | 0.00 | 73 | 1013.5 |
| 20260903194330 | 21 | 78 | 3.2 | 6.4 | 0.00 | 0.00 | 0.00 | 76 | 1013.6 |
| 20260903193830 | 21 | 76 | 1.6 | 4.8 | 0.00 | 0.00 | 0.00 | 76 | 1013.8 |
| 20260903193329 | 22 | 58 | 1.6 | 3.2 | 0.00 | 0.00 | 0.00 | 74 | 1013.9 |
| 20260903192824 | 22 | 55 | 1.6 | 3.2 | 0.00 | 0.00 | 0.00 | 72 | 1014.1 |
| 20260903192323 | 22 | 25 | 0.0 | 3.2 | 0.00 | 0.00 | 0.00 | 71 | 1014.1 |
| 20260903191821 | 22 | 54 | 0.0 | 4.8 | 0.00 | 0.00 | 0.00 | 72 | 1014.3 |
| 20260903191547 | 22 | 4 | 0.0 | 4.8 | 0.00 | 0.00 | 0.00 | 70 | 1014.3 |
| 20260903190816 | 22 | 21 | 0.0 | 3.2 | 0.00 | 0.00 | 0.00 | 70 | 1014.4 |
| 20260903190316 | 21 | 317 | 0.0 | 3.2 | 0.00 | 0.00 | 0.00 | 72 | 1014.3 |
| 20260903185816 | 21 | 347 | 0.0 | 3.2 | 0.00 | 0.00 | 0.00 | 71 | 1014.3 |
| 20260903185314 | 21 | 21 | 0.0 | 8.0 | 0.00 | 0.00 | 0.00 | 70 | 1014.3 |
| 20260903184813 | 21 | 34 | 1.6 | 8.0 | 0.00 | 0.00 | 0.00 | 72 | 1014.3 |
| 20260903184545 | 22 | 47 | 1.6 | 3.2 | 0.00 | 0.00 | 0.00 | 71 | 1014.2 |
| 20260903183813 | 22 | 30 | 0.0 | 4.8 | 0.00 | 0.00 | 0.00 | 69 | 1014.2 |
| 20260903183315 | 22 | 38 | 1.6 | 4.8 | 0.00 | 0.00 | 0.00 | 71 | 1014.2 |
| 20260903182811 | 22 | 341 | 1.6 | 4.8 | 0.00 | 0.00 | 0.00 | 70 | 1014.2 |
| 20260903182310 | 21 | 278 | 1.6 | 4.8 | 0.00 | 0.00 | 0.00 | 76 | 1014.2 |
| 20260903181811 | 20 | 329 | 0.0 | 4.8 | 0.00 | 0.00 | 0.00 | 78 | 1014.1 |
| 20260903181312 | 20 | 52 | 0.0 | 4.8 | 0.00 | 0.00 | 0.00 | 80 | 1014.0 |
| 20260903180811 | 20 | 307 | 0.0 | 8.0 | 0.00 | 0.00 | 0.00 | 80 | 1013.8 |
| 20260903180311 | 20 | 32 | 4.8 | 8.0 | 0.00 | 0.00 | 0.00 | 81 | 1013.8 |
| 20260903180040 | 20 | 40 | 0.0 | 6.4 | 0.00 | 0.00 | 0.00 | 81 | 1013.8 |
| 20260903175312 | 20 | 30 | 3.2 | 9.7 | 0.00 | 0.00 | 0.00 | 80 | 1013.8 |
| 20260903174812 | 20 | 337 | 3.2 | 9.7 | 0.00 | 0.00 | 0.00 | 82 | 1013.6 |
| 20260903174313 | 20 | 28 | 3.2 | 9.7 | 0.00 | 0.00 | 0.00 | 84 | 1013.5 |
| 20260903173812 | 20 | 32 | 3.2 | 9.7 | 0.00 | 0.00 | 0.00 | 82 | 1013.3 |
| 20260903173311 | 20 | 355 | 3.2 | 9.7 | 0.00 | 0.00 | 0.00 | 83 | 1013.2 |
| 20260903173038 | 20 | 18 | 4.8 | 9.7 | 0.00 | 0.00 | 0.00 | 82 | 1013.3 |
| 20260903172535 | 21 | 37 | 6.4 | 9.7 | 0.00 | 0.00 | 0.00 | 80 | 1013.3 |
| 20260903171809 | 21 | 42 | 3.2 | 6.4 | 0.00 | 0.00 | 0.00 | 80 | 1013.6 |
| 20260903171309 | 20 | 63 | 1.6 | 6.4 | 0.00 | 0.00 | 0.00 | 82 | 1013.7 |
| 20260903170808 | 20 | 30 | 0.0 | 6.4 | 0.00 | 0.00 | 0.00 | 82 | 1013.6 |
| 20260903170308 | 20 | 32 | 0.0 | 9.7 | 0.00 | 0.00 | 0.00 | 84 | 1013.4 |
| 20260903165805 | 20 | 30 | 4.8 | 9.7 | 0.00 | 0.00 | 0.00 | 84 | 1013.4 |
| 20260903165306 | 20 | 327 | 3.2 | 9.7 | 0.00 | 0.00 | 0.00 | 84 | 1013.4 |
| 20260903164805 | 20 | 54 | 3.2 | 9.7 | 0.00 | 0.00 | 0.00 | 83 | 1013.5 |
| 20260903164307 | 20 | 25 | 1.6 | 9.7 | 0.00 | 0.00 | 0.00 | 84 | 1013.3 |
| 20260903163802 | 20 | 34 | 4.8 | 14.5 | 0.00 | 0.00 | 0.00 | 84 | 1013.3 |
| 20260903163302 | 20 | 21 | 6.4 | 14.5 | 0.00 | 0.00 | 0.00 | 84 | 1013.3 |
| 20260903163033 | 20 | 4 | 3.2 | 11.3 | 0.00 | 0.00 | 0.00 | 84 | 1013.3 |
| 20260903162258 | 20 | 30 | 3.2 | 11.3 | 0.00 | 0.00 | 0.00 | 85 | 1013.3 |
| 20260903162030 | 20 | 21 | 3.2 | 11.3 | 0.00 | 0.00 | 0.00 | 84 | 1013.3 |
| 20260903161259 | 20 | 24 | 8.0 | 11.3 | 0.00 | 0.00 | 0.00 | 84 | 1013.2 |
| 20260903161033 | 20 | 121 | 0.0 | 14.5 | 0.00 | 0.00 | 0.00 | 85 | 1013.4 |
| 20260903160256 | 20 | 56 | 6.4 | 14.5 | 0.00 | 0.00 | 0.00 | 85 | 1013.4 |
| 20260903160027 | 20 | 41 | 3.2 | 14.5 | 0.00 | 0.00 | 0.00 | 82 | 1013.4 |
| 20260903155253 | 20 | 78 | 0.0 | 8.0 | 0.00 | 0.00 | 0.00 | 83 | 1013.5 |
| 20260903155021 | 20 | 114 | 0.0 | 8.0 | 0.00 | 0.00 | 0.00 | 83 | 1013.6 |
| 20260903154524 | 20 | 24 | 3.2 | 6.4 | 0.00 | 0.00 | 0.00 | 83 | 1013.5 |
| 20260903153755 | 20 | 286 | 0.0 | 11.3 | 0.00 | 0.00 | 0.00 | 83 | 1013.5 |
| 20260903153254 | 20 | 25 | 4.8 | 11.3 | 0.00 | 0.00 | 0.00 | 82 | 1013.5 |
| 20260903152754 | 20 | 31 | 3.2 | 11.3 | 0.00 | 0.00 | 0.00 | 82 | 1013.5 |
| 20260903152255 | 20 | 32 | 4.8 | 11.3 | 0.00 | 0.00 | 0.00 | 81 | 1013.5 |
| 20260903151752 | 20 | 358 | 0.0 | 9.7 | 0.00 | 0.00 | 0.00 | 84 | 1013.6 |
| 20260903151252 | 20 | 9 | 3.2 | 9.7 | 0.00 | 0.00 | 0.00 | 82 | 1013.4 |
| 20260903150751 | 20 | 27 | 4.8 | 9.7 | 0.00 | 0.00 | 0.00 | 81 | 1013.4 |
| 20260903150250 | 20 | 52 | 3.2 | 9.7 | 0.00 | 0.00 | 0.00 | 80 | 1013.4 |
| 20260903145750 | 21 | 37 | 3.2 | 9.7 | 0.00 | 0.00 | 0.00 | 78 | 1013.4 |
| 20260903145252 | 21 | 47 | 6.4 | 9.7 | 0.00 | 0.00 | 0.00 | 76 | 1013.5 |
| 20260903144821 | 21 | 126 | 1.6 | 6.4 | 0.00 | 0.00 | 0.00 | 76 | 1013.4 |
| 20260903144330 | 20 | 8 | 0.0 | 6.4 | 0.00 | 0.00 | 0.00 | 80 | 1013.4 |
| 20260903143750 | 20 | 52 | 1.6 | 8.0 | 0.00 | 0.00 | 0.00 | 80 | 1013.3 |
| 20260903143312 | 20 | 121 | 0.0 | 9.7 | 0.00 | 0.00 | 0.00 | 81 | 1013.3 |
| 20260903142849 | 20 | 12 | 3.2 | 9.7 | 0.00 | 0.00 | 0.00 | 77 | 1013.4 |
| 20260903142330 | 21 | 25 | 3.2 | 8.0 | 0.00 | 0.00 | 0.00 | 76 | 1013.5 |
| 20260903141759 | 21 | 9 | 3.2 | 6.4 | 0.00 | 0.00 | 0.00 | 74 | 1013.4 |
| 20260903141246 | 21 | 326 | 1.6 | 4.8 | 0.00 | 0.00 | 0.00 | 77 | 1013.4 |
| 20260903141013 | 20 | 344 | 0.0 | 4.8 | 0.00 | 0.00 | 0.00 | 76 | 1013.6 |
| 20260903140242 | 20 | 343 | 0.0 | 4.8 | 0.00 | 0.00 | 0.00 | 77 | 1013.5 |
| 20260903140212 | 20 | 296 | 0.0 | 4.8 | 0.00 | 0.00 | 0.00 | 78 | 1013.5 |
| 20260903135247 | 20 | 305 | 0.0 | 8.0 | 0.00 | 0.00 | 0.00 | 79 | 1013.4 |
| 20260903134744 | 20 | 42 | 1.6 | 8.0 | 0.00 | 0.00 | 0.00 | 80 | 1013.3 |
| 20260903134300 | 20 | 331 | 1.6 | 4.8 | 0.00 | 0.00 | 0.00 | 81 | 1013.3 |
| 20260903133739 | 20 | 217 | 0.0 | 4.8 | 0.00 | 0.00 | 0.00 | 80 | 1013.2 |
| 20260903133240 | 20 | 41 | 0.0 | 4.8 | 0.00 | 0.00 | 0.00 | 80 | 1013.4 |
| 20260903132739 | 20 | 15 | 0.0 | 4.8 | 0.00 | 0.00 | 0.00 | 78 | 1013.4 |
| 20260903132240 | 20 | 355 | 1.6 | 4.8 | 0.00 | 0.00 | 0.00 | 78 | 1013.4 |
| 20260903131739 | 20 | 324 | 0.0 | 4.8 | 0.00 | 0.00 | 0.00 | 78 | 1013.3 |
| 20260903131507 | 20 | 331 | 0.0 | 4.8 | 0.00 | 0.00 | 0.00 | 81 | 1013.4 |
| 20260903130738 | 19 | 317 | 0.0 | 4.8 | 0.00 | 0.00 | 0.00 | 82 | 1013.4 |
| 20260903130507 | 19 | 298 | 0.0 | 4.8 | 0.00 | 0.00 | 0.00 | 83 | 1013.2 |
| 20260903125733 | 20 | 316 | 1.6 | 3.2 | 0.00 | 0.00 | 0.00 | 85 | 1013.3 |
| 20260903125226 | 19 | 303 | 1.6 | 3.2 | 0.00 | 0.00 | 0.00 | 87 | 1013.3 |
| 20260903124727 | 19 | 327 | 0.0 | 3.2 | 0.00 | 0.00 | 0.00 | 89 | 1013.2 |
| 20260903124227 | 18 | 309 | 0.0 | 3.2 | 0.00 | 0.00 | 0.00 | 90 | 1013.3 |
| 20260903123725 | 18 | 95 | 0.0 | 4.8 | 0.00 | 0.00 | 0.00 | 92 | 1013.3 |
| 20260903123223 | 18 | 343 | 1.6 | 6.4 | 0.00 | 0.00 | 0.00 | 94 | 1013.3 |
| 20260903122724 | 17 | 333 | 1.6 | 6.4 | 0.00 | 0.00 | 0.00 | 95 | 1013.5 |
| 20260903122223 | 17 | 283 | 3.2 | 9.7 | 0.00 | 0.00 | 0.00 | 95 | 1013.5 |
| 20260903121722 | 17 | 278 | 3.2 | 9.7 | 0.00 | 0.00 | 0.00 | 96 | 1013.5 |
| 20260903121450 | 16 | 272 | 4.8 | 8.0 | 0.00 | 0.00 | 0.00 | 96 | 1013.4 |
| 20260903120721 | 16 | 267 | 1.6 | 4.8 | 0.00 | 0.00 | 0.00 | 97 | 1013.2 |
| 20260903120223 | 16 | 268 | 1.6 | 6.4 | 0.00 | 0.00 | 0.00 | 97 | 1013.2 |
| 20260903115942 | 16 | 279 | 3.2 | 6.4 | 0.00 | 0.00 | 0.00 | 97 | 1013.2 |
| 20260903115212 | 15 | 269 | 4.8 | 6.4 | 0.00 | 0.00 | 0.00 | 97 | 1013.2 |
| 20260903114711 | 15 | 268 | 3.2 | 4.8 | 0.00 | 0.00 | 0.00 | 96 | 1013.1 |
| 20260903114210 | 15 | 255 | 1.6 | 3.2 | 0.00 | 0.00 | 0.00 | 97 | 1013.0 |
| 20260903113708 | 15 | 259 | 1.6 | 3.2 | 0.00 | 0.00 | 0.00 | 97 | 1012.9 |
| 20260903113208 | 15 | 265 | 0.0 | 3.2 | 0.00 | 0.00 | 0.00 | 96 | 1013.0 |
| 20260903112708 | 15 | 250 | 0.0 | 3.2 | 0.00 | 0.00 | 0.00 | 96 | 1013.0 |
| 20260903112207 | 15 | 247 | 0.0 | 3.2 | 0.00 | 0.00 | 0.00 | 96 | 1013.0 |
| 20260903111707 | 15 | 267 | 1.6 | 4.8 | 0.00 | 0.00 | 0.00 | 96 | 1012.9 |
| 20260903111208 | 15 | 278 | 1.6 | 4.8 | 0.00 | 0.00 | 0.00 | 96 | 1013.0 |
| 20260903110705 | 15 | 264 | 1.6 | 3.2 | 0.00 | 0.00 | 0.00 | 96 | 1013.0 |
| 20260903110212 | 15 | 271 | 1.6 | 4.8 | 0.00 | 0.00 | 0.00 | 96 | 1013.0 |
| 20260903105933 | 15 | 275 | 1.6 | 4.8 | 0.00 | 0.00 | 0.00 | 96 | 1012.9 |
| 20260903105203 | 15 | 290 | 0.0 | 4.8 | 0.00 | 0.00 | 0.00 | 96 | 1012.9 |
| 20260903104703 | 15 | 283 | 1.6 | 4.8 | 0.00 | 0.00 | 0.00 | 96 | 1012.8 |
| 20260903104204 | 15 | 261 | 3.2 | 4.8 | 0.00 | 0.00 | 0.00 | 96 | 1012.9 |
| 20260903103703 | 15 | 265 | 3.2 | 3.2 | 0.00 | 0.00 | 0.00 | 96 | 1012.9 |
| 20260903103203 | 15 | 275 | 1.6 | 4.8 | 0.00 | 0.00 | 0.00 | 96 | 1012.8 |
| 20260903102702 | 15 | 282 | 3.2 | 6.4 | 0.00 | 0.00 | 0.00 | 96 | 1012.9 |
| 20260903102202 | 15 | 275 | 3.2 | 8.0 | 0.00 | 0.00 | 0.00 | 96 | 1012.9 |
| 20260903101703 | 16 | 275 | 4.8 | 8.0 | 0.00 | 0.00 | 0.00 | 96 | 1012.9 |
| 20260903101202 | 15 | 285 | 3.2 | 8.0 | 0.00 | 0.00 | 0.00 | 95 | 1012.9 |
| 20260903100702 | 15 | 298 | 6.4 | 8.0 | 0.00 | 0.00 | 0.00 | 95 | 1013.0 |
| 20260903100203 | 15 | 276 | 3.2 | 6.4 | 0.00 | 0.00 | 0.00 | 95 | 1012.9 |
| 20260903095702 | 15 | 278 | 3.2 | 6.4 | 0.00 | 0.00 | 0.00 | 95 | 1012.8 |
| 20260903095201 | 15 | 275 | 3.2 | 6.4 | 0.00 | 0.00 | 0.00 | 95 | 1012.8 |
| 20260903094657 | 15 | 283 | 1.6 | 4.8 | 0.00 | 0.00 | 0.00 | 94 | 1012.8 |
| 20260903094423 | 15 | 274 | 3.2 | 4.8 | 0.00 | 0.00 | 0.00 | 94 | 1012.7 |
| 20260903093658 | 15 | 252 | 1.6 | 6.4 | 0.00 | 0.00 | 0.00 | 94 | 1012.7 |
| 20260903093159 | 15 | 268 | 3.2 | 6.4 | 0.00 | 0.00 | 0.00 | 94 | 1012.9 |
| 20260903092656 | 15 | 282 | 3.2 | 4.8 | 0.00 | 0.00 | 0.00 | 94 | 1012.9 |
| 20260903092157 | 15 | 265 | 3.2 | 4.8 | 0.00 | 0.00 | 0.00 | 94 | 1012.8 |
| 20260903091653 | 15 | 274 | 1.6 | 3.2 | 0.00 | 0.00 | 0.00 | 94 | 1012.8 |
| 20260903091427 | 15 | 300 | 1.6 | 3.2 | 0.00 | 0.00 | 0.00 | 93 | 1012.7 |
| 20260903090919 | 15 | 275 | 1.6 | 3.2 | 0.00 | 0.00 | 0.00 | 93 | 1012.6 |
| 20260903090156 | 15 | 269 | 1.6 | 3.2 | 0.00 | 0.00 | 0.00 | 93 | 1012.6 |
| 20260903085923 | 15 | 275 | 0.0 | 3.2 | 0.00 | 0.00 | 0.00 | 93 | 1012.7 |
| 20260903085425 | 15 | 272 | 1.6 | 3.2 | 0.00 | 0.00 | 0.00 | 93 | 1012.7 |
| 20260903084649 | 15 | 286 | 0.0 | 1.6 | 0.00 | 0.00 | 0.00 | 93 | 1012.7 |
| 20260903084420 | 15 | 288 | 0.0 | 0.0 | 0.00 | 0.00 | 0.00 | 93 | 1012.7 |
| 20260903083650 | 15 | 292 | 0.0 | 3.2 | 0.00 | 0.00 | 0.00 | 92 | 1012.6 |
| 20260903083148 | 16 | 272 | 0.0 | 3.2 | 0.00 | 0.00 | 0.00 | 92 | 1012.6 |
| 20260903082647 | 16 | 269 | 0.0 | 1.6 | 0.00 | 0.00 | 0.00 | 92 | 1012.5 |
| 20260903082148 | 16 | 268 | 0.0 | 3.2 | 0.00 | 0.00 | 0.00 | 92 | 1012.4 |
| 20260903081649 | 16 | 271 | 1.6 | 3.2 | 0.00 | 0.00 | 0.00 | 91 | 1012.6 |
| 20260903081151 | 16 | 271 | 1.6 | 3.2 | 0.00 | 0.00 | 0.00 | 91 | 1012.6 |
| 20260903080646 | 16 | 314 | 0.0 | 3.2 | 0.00 | 0.00 | 0.00 | 91 | 1012.7 |
| 20260903080153 | 16 | 264 | 0.0 | 3.2 | 0.00 | 0.00 | 0.00 | 90 | 1012.6 |
| 20260903075512 | 16 | 259 | 0.0 | 3.2 | 0.00 | 0.00 | 0.00 | 90 | 1012.6 |
| 20260903075014 | 16 | 257 | 0.0 | 3.2 | 0.00 | 0.00 | 0.00 | 90 | 1012.6 |
| 20260903074510 | 16 | 264 | 0.0 | 3.2 | 0.00 | 0.00 | 0.00 | 90 | 1012.6 |
| 20260903074010 | 16 | 264 | 0.0 | 4.8 | 0.00 | 0.00 | 0.00 | 90 | 1012.5 |
| 20260903073735 | 17 | 265 | 3.2 | 4.8 | 0.00 | 0.00 | 0.00 | 90 | 1012.5 |
| 20260903073232 | 17 | 302 | 0.0 | 4.8 | 0.00 | 0.00 | 0.00 | 90 | 1012.5 |
| 20260903072508 | 17 | 303 | 0.0 | 4.8 | 0.00 | 0.00 | 0.00 | 90 | 1012.4 |
| 20260903072008 | 17 | 290 | 0.0 | 3.2 | 0.00 | 0.00 | 0.00 | 90 | 1012.4 |
| 20260903071731 | 17 | 283 | 0.0 | 3.2 | 0.00 | 0.00 | 0.00 | 90 | 1012.4 |
| 20260903071234 | 17 | 320 | 0.0 | 4.8 | 0.00 | 0.00 | 0.00 | 90 | 1012.4 |
| 20260903070504 | 16 | 282 | 0.0 | 4.8 | 0.00 | 0.00 | 0.00 | 91 | 1012.4 |
| 20260903070005 | 16 | 282 | 3.2 | 6.4 | 0.00 | 0.00 | 0.00 | 91 | 1012.3 |
| 20260903065742 | 16 | 276 | 4.8 | 6.4 | 0.00 | 0.00 | 0.00 | 91 | 1012.4 |
| 20260903065233 | 16 | 275 | 3.2 | 4.8 | 0.00 | 0.00 | 0.00 | 91 | 1012.3 |
| 20260903064503 | 16 | 283 | 1.6 | 4.8 | 0.00 | 0.00 | 0.00 | 91 | 1012.3 |
| 20260903064006 | 16 | 278 | 1.6 | 4.8 | 0.00 | 0.00 | 0.00 | 90 | 1012.3 |
| 20260903063503 | 16 | 282 | 1.6 | 4.8 | 0.00 | 0.00 | 0.00 | 90 | 1012.3 |
| 20260903063006 | 16 | 276 | 3.2 | 6.4 | 0.00 | 0.00 | 0.00 | 90 | 1012.3 |
| 20260903062503 | 17 | 275 | 4.8 | 6.4 | 0.00 | 0.00 | 0.00 | 90 | 1012.2 |
| 20260903062002 | 17 | 271 | 4.8 | 8.0 | 0.00 | 0.00 | 0.00 | 90 | 1012.2 |
| 20260903061502 | 17 | 262 | 4.8 | 8.0 | 0.00 | 0.00 | 0.00 | 90 | 1012.1 |
| 20260903061003 | 17 | 278 | 3.2 | 6.4 | 0.00 | 0.00 | 0.00 | 90 | 1012.1 |
| 20260903060502 | 17 | 264 | 3.2 | 4.8 | 0.00 | 0.00 | 0.00 | 90 | 1012.1 |
| 20260903060001 | 17 | 295 | 3.2 | 4.8 | 0.00 | 0.00 | 0.00 | 90 | 1011.9 |
| 20260903055502 | 17 | 264 | 1.6 | 4.8 | 0.00 | 0.00 | 0.00 | 91 | 1011.9 |
| 20260903055239 | 17 | 275 | 3.2 | 4.8 | 0.00 | 0.00 | 0.00 | 91 | 1011.9 |
| 20260903054503 | 17 | 306 | 1.6 | 4.8 | 0.00 | 0.00 | 0.00 | 91 | 1011.9 |
| 20260903054003 | 17 | 312 | 1.6 | 6.4 | 0.00 | 0.00 | 0.00 | 92 | 1011.9 |
| 20260903053504 | 17 | 289 | 1.6 | 6.4 | 0.00 | 0.00 | 0.00 | 92 | 1011.9 |
| 20260903053006 | 17 | 298 | 3.2 | 6.4 | 0.00 | 0.00 | 0.00 | 93 | 1011.8 |
| 20260903052502 | 17 | 326 | 3.2 | 6.4 | 0.00 | 0.00 | 0.00 | 93 | 1011.8 |
| 20260903052002 | 17 | 290 | 3.2 | 6.4 | 0.00 | 0.00 | 0.00 | 93 | 1011.7 |
| 20260903051501 | 17 | 279 | 1.6 | 4.8 | 0.00 | 0.00 | 0.00 | 93 | 1011.7 |
| 20260903051003 | 17 | 290 | 1.6 | 3.2 | 0.00 | 0.00 | 0.00 | 93 | 1011.8 |
| 20260903050502 | 17 | 303 | 1.6 | 4.8 | 0.00 | 0.00 | 0.00 | 93 | 1011.7 |
| 20260903045959 | 17 | 281 | 1.6 | 6.4 | 0.00 | 0.00 | 0.00 | 93 | 1011.7 |
| 20260903045500 | 17 | 336 | 3.2 | 8.0 | 0.00 | 0.00 | 0.00 | 93 | 1011.6 |
| 20260903045000 | 17 | 278 | 4.8 | 8.0 | 0.00 | 0.00 | 0.00 | 93 | 1011.6 |
| 20260903044459 | 17 | 286 | 4.8 | 8.0 | 0.00 | 0.00 | 0.00 | 93 | 1011.5 |
| 20260903044000 | 17 | 281 | 4.8 | 6.4 | 0.00 | 0.00 | 0.00 | 93 | 1011.5 |
| 20260903043501 | 17 | 275 | 4.8 | 6.4 | 0.00 | 0.00 | 0.00 | 93 | 1011.5 |
| 20260903042956 | 17 | 275 | 3.2 | 4.8 | 0.00 | 0.00 | 0.00 | 93 | 1011.4 |
| 20260903042455 | 17 | 282 | 1.6 | 4.8 | 0.00 | 0.00 | 0.00 | 93 | 1011.4 |
| 20260903041954 | 17 | 282 | 1.6 | 3.2 | 0.00 | 0.00 | 0.00 | 93 | 1011.5 |
| 20260903041455 | 17 | 276 | 1.6 | 4.8 | 0.00 | 0.00 | 0.00 | 93 | 1011.4 |
| 20260903040952 | 17 | 275 | 0.0 | 4.8 | 0.00 | 0.00 | 0.00 | 92 | 1011.5 |
| 20260903040452 | 17 | 274 | 3.2 | 4.8 | 0.00 | 0.00 | 0.00 | 92 | 1011.6 |
| 20260903035951 | 17 | 267 | 3.2 | 4.8 | 0.00 | 0.00 | 0.00 | 92 | 1011.5 |
| 20260903035721 | 17 | 261 | 1.6 | 3.2 | 0.00 | 0.00 | 0.00 | 92 | 1011.5 |
| 20260903035221 | 17 | 271 | 1.6 | 3.2 | 0.00 | 0.00 | 0.00 | 92 | 1011.5 |
| 20260903034451 | 17 | 272 | 3.2 | 3.2 | 0.00 | 0.00 | 0.00 | 92 | 1011.6 |
| 20260903033952 | 17 | 257 | 1.6 | 3.2 | 0.00 | 0.00 | 0.00 | 91 | 1011.7 |
| 20260903033451 | 17 | 259 | 1.6 | 3.2 | 0.00 | 0.00 | 0.00 | 91 | 1011.7 |
| 20260903032950 | 18 | 275 | 0.0 | 3.2 | 0.00 | 0.00 | 0.00 | 91 | 1011.6 |